[[{"header":{"parameterUnit":"m.s-1","parameterCategory":1,"la1":30.2991,"la2":30.254,"lo1":-89.0895,"lo2":-89.0444,"dy":0.0017,"dx":0.0017,"nx":28,"ny":28,"refTime":"2023-10-06T03:00:00:Z","depth":0,"parameterNumber":2,"parameterNumberName":"U-component_of_WINDS"},"data":[0,0,0,0,0,0,0,0,0,0,0,0,0,0,0,0,0,0,0,0,0,0,0,0,0,0,0,0,0,0,0,0,0,0,0,0,0,0,0,0,0,0,0,0,0,0,0,0,0,0,0,0,0,0,0,0,0,0,0.6696,0.6697,0,0.6742,0.6743,0.6743,0.6769,0.6769,0.6769,0.6769,0.6817,0.6818,0.6819,0,0,0,0,0,0,0,0,0,0,0,0,0,0.6631,0.6632,0.6696,0.6697,0.6697,0.6742,0.6743,0.6743,0.6769,0.6769,0.6769,0.6769,0.6816,0.6818,0.6819,0,0,0,0,0,0,0,0,0,0,0,0,0,0.6667,0.6633,0.6696,0.6715,0.6717,0.6742,0.6743,0.6743,0.6769,0.6769,0.6769,0.6769,0.6816,0.6817,0.6819,0.6828,0,0,0.6825,0.6826,0,0,0,0,0,0,0,0,0.6664,0.6669,0.6712,0.6714,0.6716,0.675,0.6737,0.6772,0.6769,0.6749,0.6769,0.6769,0.6794,0.6798,0.6806,0.683,0.6832,0.6825,0.6826,0.6827,0.6827,0,0,0,0,0,0,0,0.6662,0.6667,0.6714,0.6712,0.6715,0.6722,0.6727,0.6744,0.6771,0.6751,0.6753,0.6758,0.6796,0.6805,0.6808,0.6833,0.6825,0.6826,0.6828,0.6828,0.6868,0.6868,0,0,0,0,0,0,0.6656,0.6665,0.6713,0.6716,0.669,0.6723,0.6729,0.6739,0.6771,0.6775,0.6758,0.6759,0.6801,0.6805,0.6809,0.6823,0.6827,0.6828,0.6829,0.6868,0.6868,0.6868,0,0,0,0,0,0,0.6655,0.666,0.6711,0.6691,0.6698,0.6724,0.6735,0.674,0.6749,0.6776,0.6781,0.6762,0.6802,0.6807,0.6824,0.6825,0.6829,0.6831,0.6868,0.6868,0.6868,0.6849,0,0,0,0,0,0,0.6653,0.666,0.6663,0.6691,0.6699,0.6724,0.6735,0.6741,0.6752,0.6754,0.6781,0.6786,0.6802,0.6821,0.6825,0.6827,0.6832,0.6868,0.6868,0.6868,0.6849,0.6848,0.6847,0,0,0,0,0,0.665,0.6655,0.6663,0.6669,0.6703,0.6724,0.6728,0.6747,0.6752,0.6756,0.6773,0.6785,0.6824,0.6822,0.6828,0.683,0.6868,0.6868,0.6868,0.685,0.6848,0.6847,0,0,0,0,0,0,0.6627,0.6659,0.6668,0.6682,0.67,0.6728,0.6733,0.6745,0.6762,0.6763,0.6786,0.6792,0.6807,0.682,0.6818,0.6841,0.6847,0.6848,0.6831,0.683,0.6829,0.6825,0.6834,0,0,0,0,0,0.6623,0.6637,0.6665,0.6674,0.6683,0.6707,0.6716,0.6729,0.6749,0.6757,0.6775,0.6794,0.6811,0.6821,0.6838,0.6851,0.6858,0.6856,0.6855,0.6853,0.6854,0.6863,0.6863,0.6868,0.6868,0.6868,0,0,0.6616,0.6635,0.6643,0.667,0.6686,0.67,0.6713,0.6727,0.6738,0.6759,0.6776,0.679,0.6813,0.6828,0.6836,0.684,0.6854,0.6853,0.6852,0.6853,0.6863,0.6862,0.6862,0.6868,0.6868,0.6868,0,0,0.661,0.6626,0.6636,0.6651,0.6675,0.6691,0.6693,0.672,0.673,0.6748,0.6764,0.6778,0.6806,0.6821,0.6833,0.6834,0.6846,0.6839,0.6833,0.6841,0.6841,0.684,0.6841,0.6842,0.684,0.684,0.684,0,0.6598,0.6619,0.664,0.6653,0.6665,0.6685,0.6696,0.671,0.6738,0.6746,0.675,0.6786,0.6803,0.6823,0.6823,0.6832,0.6836,0.6836,0.6839,0.6839,0.6839,0.684,0.6841,0.6839,0.6839,0.6839,0.6839,0,0.6604,0.6619,0.6624,0.6651,0.6663,0.6675,0.6698,0.6709,0.6721,0.6737,0.6755,0.6776,0.6797,0.6803,0.6815,0.6825,0.6827,0.6835,0.6842,0.6837,0.6839,0.6839,0.6837,0.6838,0.6838,0.6838,0,0,0.6583,0.6621,0.6623,0.6636,0.6664,0.6676,0.6689,0.6711,0.672,0.6739,0.6751,0.6775,0.6783,0.6796,0.681,0.6817,0.6818,0.6825,0.6826,0.6823,0.6831,0.6825,0.6825,0.6826,0.6826,0.6826,0.6829,0,0.6581,0.6606,0.6625,0.6643,0.6658,0.6678,0.669,0.6708,0.6724,0.6739,0.6756,0.6772,0.6781,0.6789,0.6798,0.6816,0.682,0.6816,0.6838,0.6839,0.6832,0.6826,0.6819,0.6821,0.683,0.683,0.683,0,0.6582,0.66,0.662,0.6647,0.6654,0.6664,0.6686,0.67,0.6722,0.6733,0.6748,0.6763,0.6779,0.6785,0.6807,0.6804,0.6815,0.6825,0.6826,0.6829,0.6834,0.6829,0.6822,0.6822,0.6831,0.6831,0.6831,0,0.6566,0.6595,0.6611,0.6621,0.6653,0.666,0.6674,0.6696,0.6708,0.6728,0.6736,0.6756,0.6768,0.6784,0.6804,0.6807,0.6825,0.6832,0.6835,0.6835,0.6838,0.6837,0.6833,0.6844,0.6844,0.6844,0.6844,0,0.6561,0.6573,0.6604,0.6613,0.6627,0.6649,0.6662,0.6678,0.6698,0.6711,0.673,0.6742,0.6768,0.6784,0.68,0.6817,0.6822,0.6832,0.6836,0.683,0.6829,0.6837,0.6837,0.6844,0.6844,0.6844,0.6844,0,0.6545,0.6566,0.6585,0.6614,0.6622,0.6631,0.6656,0.6667,0.6683,0.67,0.6705,0.6732,0.6752,0.6774,0.68,0.6812,0.6827,0.6833,0.682,0.6822,0.6824,0.6823,0.6824,0.6826,0.6836,0.6836,0.6836,0,0.6541,0.655,0.6581,0.6591,0.6604,0.6621,0.6633,0.6656,0.6669,0.6695,0.6703,0.6724,0.6742,0.6772,0.6794,0.6815,0.6822,0.6821,0.6825,0.682,0.6823,0.6822,0.6823,0.682,0.6819,0.6819,0.6819,0,0.6532,0.6542,0.6559,0.6581,0.6595,0.6613,0.6632,0.6639,0.6666,0.6679,0.67,0.6714,0.6742,0.6763,0.6786,0.6801,0.6815,0.6818,0.6819,0.6814,0.6806,0.681,0.6817,0.6817,0.6818,0.6818,0.6818,0.6818,0.6522,0.6531,0.6554,0.6573,0.659,0.6607,0.6619,0.6637,0.6654,0.6679,0.6692,0.6712,0.6735,0.6769,0.6783,0.68,0.6804,0.6807,0.6808,0.6808,0.6807,0.6803,0.6805,0.6805,0.6805,0.6805,0.6805,0,0.6513,0.653,0.6547,0.6573,0.6588,0.6599,0.6621,0.6633,0.6651,0.6671,0.6689,0.6713,0.6734,0.6758,0.678,0.6789,0.6796,0.6794,0.6794,0.6797,0.6801,0.6797,0.6788,0.6788,0.6788,0.6788,0.6788,0.6788,0.6511,0.6528,0.6541,0.6567,0.6583,0.6603,0.6615,0.6631,0.6648,0.6674,0.6691,0.6706,0.6729,0.6753,0.6773,0.678,0.6787,0.6784,0.6792,0.6795,0.6797,0.6798,0.6795,0.6785,0.6785,0.6787,0.6787,0.6787]},{"header":{"parameterUnit":"m.s-1","parameterCategory":1,"la1":30.2991,"la2":30.254,"lo1":-89.0895,"lo2":-89.0444,"dy":0.0017,"dx":0.0017,"nx":28,"ny":28,"refTime":"2023-10-06T03:00:00:Z","depth":0,"parameterNumber":3,"parameterNumberName":"V-component_of_WINDS"},"data":[0,0,0,0,0,0,0,0,0,0,0,0,0,0,0,0,0,0,0,0,0,0,0,0,0,0,0,0,0,0,0,0,0,0,0,0,0,0,0,0,0,0,0,0,0,0,0,0,0,0,0,0,0,0,0,0,0,0,-6.5653,-6.5654,0,-6.5726,-6.5727,-6.5728,-6.5699,-6.5697,-6.5696,-6.5694,-6.5763,-6.5766,-6.577,0,0,0,0,0,0,0,0,0,0,0,0,0,-6.5484,-6.5487,-6.5653,-6.5654,-6.5655,-6.5726,-6.5727,-6.5728,-6.5699,-6.5697,-6.5695,-6.5693,-6.5762,-6.5766,-6.577,0,0,0,0,0,0,0,0,0,0,0,0,0,-6.5557,-6.5488,-6.5653,-6.5649,-6.565,-6.5726,-6.5727,-6.5728,-6.57,-6.5697,-6.5695,-6.5692,-6.576,-6.5765,-6.5771,-6.5853,0,0,-6.5786,-6.5788,0,0,0,0,0,0,0,0,-6.5553,-6.5563,-6.5649,-6.565,-6.565,-6.5701,-6.5693,-6.577,-6.57,-6.568,-6.5694,-6.5691,-6.5744,-6.575,-6.5769,-6.5856,-6.5859,-6.5787,-6.579,-6.5792,-6.5793,0,0,0,0,0,0,0,-6.5548,-6.556,-6.5682,-6.565,-6.5651,-6.5642,-6.565,-6.5707,-6.5725,-6.5682,-6.568,-6.569,-6.5744,-6.5765,-6.5771,-6.586,-6.5786,-6.5791,-6.5794,-6.5796,-6.6021,-6.6023,0,0,0,0,0,0,-6.5543,-6.5556,-6.5679,-6.5684,-6.5595,-6.5648,-6.5656,-6.5687,-6.5725,-6.5728,-6.5692,-6.5688,-6.5757,-6.5765,-6.5773,-6.5874,-6.5792,-6.5797,-6.58,-6.6018,-6.6021,-6.6024,0,0,0,0,0,0,-6.554,-6.5555,-6.5676,-6.562,-6.5634,-6.5653,-6.5688,-6.569,-6.5711,-6.5732,-6.5735,-6.571,-6.5755,-6.5766,-6.5834,-6.5876,-6.5799,-6.5804,-6.6014,-6.6019,-6.6023,-6.6075,0,0,0,0,0,0,-6.5535,-6.5554,-6.5586,-6.5621,-6.5638,-6.5738,-6.5691,-6.5693,-6.572,-6.5716,-6.575,-6.5753,-6.5754,-6.5827,-6.5839,-6.5882,-6.5808,-6.6011,-6.6016,-6.6021,-6.607,-6.6081,-6.609,0,0,0,0,0,-6.5529,-6.5596,-6.5588,-6.5603,-6.5679,-6.574,-6.575,-6.5752,-6.5724,-6.5756,-6.577,-6.5752,-6.5869,-6.5834,-6.5848,-6.5892,-6.6008,-6.6015,-6.6021,-6.6065,-6.6079,-6.609,0,0,0,0,0,0,-6.5562,-6.56,-6.5591,-6.5672,-6.5704,-6.5735,-6.5776,-6.5765,-6.5804,-6.5798,-6.5797,-6.5805,-6.5876,-6.5891,-6.5851,-6.5975,-6.5934,-6.5944,-6.5963,-6.5976,-6.5986,-6.5981,-6.5812,0,0,0,0,0,-6.558,-6.5628,-6.5658,-6.5726,-6.5742,-6.5757,-6.5783,-6.5783,-6.5814,-6.5827,-6.5846,-6.5876,-6.592,-6.5949,-6.599,-6.6072,-6.6079,-6.6109,-6.6119,-6.6128,-6.6136,-6.6182,-6.6197,-6.6046,-6.6046,-6.6046,0,0,-6.5615,-6.5641,-6.5671,-6.5733,-6.5758,-6.5807,-6.5768,-6.5821,-6.5858,-6.5834,-6.5901,-6.5916,-6.595,-6.6026,-6.6061,-6.6041,-6.618,-6.6136,-6.6142,-6.6146,-6.6191,-6.6205,-6.6217,-6.605,-6.6049,-6.6049,0,0,-6.5704,-6.5729,-6.579,-6.5816,-6.5855,-6.5864,-6.5879,-6.5913,-6.5923,-6.5991,-6.5975,-6.6018,-6.6093,-6.6118,-6.6141,-6.6244,-6.6228,-6.6257,-6.631,-6.6355,-6.6367,-6.6377,-6.6415,-6.6429,-6.6265,-6.6265,-6.6265,0,-6.5742,-6.5818,-6.5821,-6.5878,-6.5905,-6.589,-6.5951,-6.5975,-6.6024,-6.6044,-6.6021,-6.6117,-6.6138,-6.6221,-6.6247,-6.6265,-6.6282,-6.6253,-6.6365,-6.6376,-6.6386,-6.6422,-6.6436,-6.6268,-6.6268,-6.6268,-6.6267,0,-6.5864,-6.5917,-6.596,-6.6012,-6.6045,-6.6103,-6.6114,-6.6147,-6.6144,-6.6156,-6.6225,-6.6251,-6.6298,-6.6317,-6.6313,-6.6401,-6.6387,-6.6365,-6.6324,-6.6403,-6.6437,-6.6451,-6.6273,-6.6272,-6.6271,-6.627,0,0,-6.5975,-6.603,-6.6046,-6.6071,-6.6114,-6.6154,-6.6211,-6.626,-6.6289,-6.6323,-6.6372,-6.6437,-6.6418,-6.6444,-6.6443,-6.6482,-6.6564,-6.6455,-6.6456,-6.6476,-6.6663,-6.6681,-6.6697,-6.6554,-6.6557,-6.6559,-6.6661,0,-6.6069,-6.6173,-6.6179,-6.6272,-6.6322,-6.6309,-6.6359,-6.639,-6.6403,-6.6446,-6.6459,-6.6506,-6.6476,-6.6492,-6.6531,-6.6546,-6.6602,-6.6539,-6.6599,-6.6601,-6.6592,-6.6714,-6.6732,-6.6827,-6.6674,-6.6676,-6.6678,0,-6.6192,-6.6235,-6.6334,-6.6373,-6.6394,-6.6439,-6.6486,-6.6527,-6.6562,-6.6569,-6.66,-6.6594,-6.6652,-6.6609,-6.669,-6.6647,-6.6672,-6.6683,-6.6687,-6.6693,-6.6645,-6.6724,-6.6857,-6.6872,-6.6699,-6.6697,-6.6695,0,-6.6265,-6.6347,-6.6418,-6.6439,-6.6485,-6.6518,-6.6538,-6.6571,-6.6601,-6.6641,-6.666,-6.6706,-6.6731,-6.6765,-6.6772,-6.674,-6.6853,-6.681,-6.686,-6.686,-6.6885,-6.6883,-6.7024,-6.6899,-6.6899,-6.6899,-6.6899,0,-6.637,-6.6432,-6.6452,-6.6496,-6.6565,-6.6571,-6.6638,-6.6656,-6.6686,-6.6732,-6.6722,-6.6765,-6.6771,-6.6815,-6.682,-6.6887,-6.6897,-6.6904,-6.6905,-6.6906,-6.6905,-6.6922,-6.6916,-6.6903,-6.6902,-6.6901,-6.69,0,-6.6463,-6.6479,-6.6556,-6.6595,-6.6606,-6.6656,-6.6688,-6.6729,-6.6742,-6.6801,-6.6815,-6.6834,-6.6886,-6.6896,-6.6956,-6.696,-6.704,-6.7034,-6.703,-6.7029,-6.7079,-6.7075,-6.7237,-6.7259,-6.7119,-6.712,-6.7121,0,-6.653,-6.6578,-6.6623,-6.6655,-6.6678,-6.6728,-6.676,-6.6768,-6.6801,-6.6846,-6.6882,-6.6934,-6.6976,-6.7059,-6.7078,-6.7124,-6.7119,-6.7173,-6.7126,-6.7126,-6.7122,-6.712,-6.7125,-6.7182,-6.7184,-6.7185,-6.7186,0,-6.6646,-6.6653,-6.67,-6.6751,-6.679,-6.683,-6.6867,-6.6893,-6.6906,-6.6943,-6.6998,-6.7031,-6.7095,-6.7146,-6.7194,-6.7213,-6.7202,-6.7201,-6.7215,-6.7217,-6.7213,-6.7217,-6.7055,-6.7197,-6.7196,-6.7195,-6.7194,-6.7194,-6.6729,-6.6772,-6.6812,-6.6865,-6.6895,-6.6931,-6.6974,-6.6993,-6.704,-6.7094,-6.7095,-6.7156,-6.7191,-6.7254,-6.7276,-6.7322,-6.7305,-6.7325,-6.7331,-6.7336,-6.7342,-6.7206,-6.7331,-6.733,-6.733,-6.733,-6.733,0,-6.6847,-6.6872,-6.6922,-6.6977,-6.7019,-6.7008,-6.7049,-6.7085,-6.7139,-6.7174,-6.7217,-6.7281,-6.7331,-6.7355,-6.7405,-6.7437,-6.7434,-6.745,-6.7448,-6.7453,-6.7353,-6.7337,-6.7452,-6.7452,-6.7452,-6.7452,-6.7452,-6.7452,-6.6913,-6.6986,-6.6997,-6.7085,-6.711,-6.7171,-6.7196,-6.7229,-6.7258,-6.7331,-6.7374,-6.739,-6.742,-6.7473,-6.7519,-6.7524,-6.7543,-6.7563,-6.7566,-6.7472,-6.746,-6.7448,-6.7432,-6.7566,-6.7567,-6.7662,-6.7663,-6.7664]}]]